Time,TemperatureF,DewpointF,PressureIn,WindDirection,WindDirectionDegrees,WindSpeedMPH,WindSpeedGustMPH,Humidity,HourlyPrecipIn,Conditions,Clouds,dailyrainin,SolarRadiationWatts/m^2,SoftwareType,DateUTC
2013-02-03 00:01:00,48.0,39.0,-100.00,ESE,108,1.0,5.0,71,0.00,,,0.00,0.000000,,2013-02-03 08:01:00,
2013-02-03 00:11:00,48.0,39.0,-100.00,ESE,108,1.0,5.0,71,0.00,,,0.00,0.000000,,2013-02-03 08:11:00,
2013-02-03 00:42:00,49.0,33.0,-100.00,NNE,22,0.0,5.0,54,0.00,,,0.00,0.000000,,2013-02-03 08:42:00,
2013-02-03 00:52:00,49.0,33.0,-100.00,NNE,22,0.0,5.0,54,0.00,,,0.00,0.000000,,2013-02-03 08:52:00,
2013-02-03 01:02:00,49.0,33.0,-100.00,NNE,22,0.0,5.0,54,0.00,,,0.00,0.000000,,2013-02-03 09:02:00,
2013-02-03 01:11:00,49.0,33.0,-100.00,NNE,22,0.0,5.0,54,0.00,,,0.00,0.000000,,2013-02-03 09:11:00,
2013-02-03 01:42:00,45.0,38.0,-100.00,East,87,0.0,3.0,76,0.00,,,0.00,0.000000,,2013-02-03 09:42:00,
2013-02-03 01:52:00,45.0,38.0,-100.00,East,87,0.0,3.0,76,0.00,,,0.00,0.000000,,2013-02-03 09:52:00,
2013-02-03 02:01:00,45.0,38.0,-100.00,East,87,0.0,3.0,76,0.00,,,0.00,0.000000,,2013-02-03 10:01:00,
2013-02-03 02:11:00,45.0,38.0,-100.00,East,87,0.0,3.0,76,0.00,,,0.00,0.000000,,2013-02-03 10:11:00,
2013-02-03 02:42:00,44.0,43.0,-100.00,East,86,0.0,4.0,95,0.01,,,0.01,0.000000,,2013-02-03 10:42:00,
2013-02-03 02:52:00,44.0,43.0,-100.00,East,86,0.0,4.0,95,0.01,,,0.01,0.000000,,2013-02-03 10:52:00,
2013-02-03 03:02:00,44.0,43.0,-100.00,East,86,0.0,4.0,95,0.01,,,0.01,0.000000,,2013-02-03 11:02:00,
2013-02-03 03:11:00,44.0,43.0,-100.00,East,86,0.0,4.0,95,0.01,,,0.01,0.000000,,2013-02-03 11:11:00,
2013-02-03 03:42:00,43.0,43.0,-100.00,ESE,104,0.0,3.0,99,0.01,,,0.02,0.000000,,2013-02-03 11:42:00,
2013-02-03 03:52:00,43.0,43.0,-100.00,ESE,104,0.0,3.0,99,0.01,,,0.02,0.000000,,2013-02-03 11:52:00,
2013-02-03 04:02:00,43.0,43.0,-100.00,ESE,104,0.0,3.0,99,0.01,,,0.02,0.000000,,2013-02-03 12:02:00,
2013-02-03 04:11:00,43.0,43.0,-100.00,ESE,104,0.0,3.0,99,0.01,,,0.02,0.000000,,2013-02-03 12:11:00,
2013-02-03 04:32:00,44.0,44.0,-100.00,NW,308,0.0,0.0,99,0.00,,,0.02,0.000000,,2013-02-03 12:32:00,
2013-02-03 04:42:00,44.0,44.0,-100.00,NW,308,0.0,0.0,99,0.00,,,0.02,0.000000,,2013-02-03 12:42:00,
2013-02-03 04:53:00,44.0,44.0,-100.00,NW,308,0.0,0.0,99,0.00,,,0.02,0.000000,,2013-02-03 12:53:00,
2013-02-03 05:03:00,44.0,44.0,-100.00,NW,308,0.0,0.0,99,0.00,,,0.02,0.000000,,2013-02-03 13:03:00,
2013-02-03 05:11:00,44.0,44.0,-100.00,NW,308,0.0,0.0,99,0.00,,,0.02,0.000000,,2013-02-03 13:11:00,
2013-02-03 05:42:00,41.0,41.0,-100.00,South,177,0.0,5.0,99,0.02,,,0.04,0.000000,,2013-02-03 13:42:00,
2013-02-03 05:52:00,41.0,41.0,-100.00,South,177,0.0,5.0,99,0.02,,,0.04,0.000000,,2013-02-03 13:52:00,
2013-02-03 06:02:00,41.0,41.0,-100.00,South,177,0.0,5.0,99,0.02,,,0.04,0.000000,,2013-02-03 14:02:00,
2013-02-03 06:11:00,41.0,41.0,-100.00,South,177,0.0,5.0,99,0.02,,,0.04,0.000000,,2013-02-03 14:11:00,
2013-02-03 06:42:00,43.0,43.0,-100.00,SE,146,0.0,5.0,99,0.00,,,0.04,0.000000,,2013-02-03 14:42:00,
2013-02-03 06:52:00,43.0,43.0,-100.00,SE,146,0.0,5.0,99,0.00,,,0.04,0.000000,,2013-02-03 14:52:00,
2013-02-03 07:03:00,43.0,43.0,-100.00,SE,146,0.0,5.0,99,0.00,,,0.04,0.000000,,2013-02-03 15:03:00,
2013-02-03 07:11:00,43.0,43.0,-100.00,SE,146,0.0,5.0,99,0.00,,,0.04,0.000000,,2013-02-03 15:11:00,
2013-02-03 07:33:00,42.0,42.0,-100.00,NW,321,0.0,5.0,99,0.00,,,-99.99,4.000000,,2013-02-03 15:33:00,
2013-02-03 07:42:00,42.0,42.0,-100.00,NW,321,0.0,5.0,99,0.00,,,-99.99,4.000000,,2013-02-03 15:42:00,
2013-02-03 07:52:00,42.0,42.0,-100.00,NW,321,0.0,5.0,99,0.00,,,-99.99,4.000000,,2013-02-03 15:52:00,
2013-02-03 08:02:00,42.0,42.0,-100.00,NW,321,0.0,5.0,99,0.00,,,-99.99,4.000000,,2013-02-03 16:02:00,
2013-02-03 08:11:00,42.0,42.0,-100.00,NW,321,0.0,5.0,99,0.00,,,-99.99,4.000000,,2013-02-03 16:11:00,
2013-02-03 08:33:00,51.0,45.0,-100.00,WNW,296,0.0,5.0,81,0.00,,,0.04,175.000000,,2013-02-03 16:33:00,
2013-02-03 08:42:00,51.0,45.0,-100.00,WNW,296,0.0,5.0,81,0.00,,,0.04,175.000000,,2013-02-03 16:42:00,
2013-02-03 08:52:00,51.0,45.0,-100.00,WNW,296,0.0,5.0,81,0.00,,,0.04,175.000000,,2013-02-03 16:52:00,
2013-02-03 09:02:00,51.0,45.0,-100.00,WNW,296,0.0,5.0,81,0.00,,,0.04,175.000000,,2013-02-03 17:02:00,
2013-02-03 09:11:00,51.0,45.0,-100.00,WNW,296,0.0,5.0,81,0.00,,,0.04,175.000000,,2013-02-03 17:11:00,
2013-02-03 09:32:00,54.0,43.0,-100.00,West,264,3.0,5.0,67,0.00,,,0.04,394.000000,,2013-02-03 17:32:00,
2013-02-03 09:42:00,54.0,43.0,-100.00,West,264,3.0,5.0,67,0.00,,,0.04,394.000000,,2013-02-03 17:42:00,
2013-02-03 09:52:00,54.0,43.0,-100.00,West,264,3.0,5.0,67,0.00,,,0.04,394.000000,,2013-02-03 17:52:00,
2013-02-03 10:02:00,54.0,43.0,-100.00,West,264,3.0,5.0,67,0.00,,,0.04,394.000000,,2013-02-03 18:02:00,
2013-02-03 10:11:00,54.0,43.0,-100.00,West,264,3.0,5.0,67,0.00,,,0.04,394.000000,,2013-02-03 18:11:00,
2013-02-03 10:33:00,59.0,41.0,-100.00,NW,326,0.0,7.0,52,0.00,,,0.04,654.000000,,2013-02-03 18:33:00,
2013-02-03 10:42:00,59.0,41.0,-100.00,NW,326,0.0,7.0,52,0.00,,,0.04,654.000000,,2013-02-03 18:42:00,
2013-02-03 10:52:00,59.0,41.0,-100.00,NW,326,0.0,7.0,52,0.00,,,0.04,654.000000,,2013-02-03 18:52:00,
2013-02-03 11:02:00,59.0,41.0,-100.00,NW,326,0.0,7.0,52,0.00,,,0.04,654.000000,,2013-02-03 19:02:00,
2013-02-03 11:33:00,58.0,39.0,-100.00,WNW,283,1.0,7.0,49,-99.99,,,-99.99,603.000000,,2013-02-03 19:33:00,
2013-02-03 11:42:00,58.0,39.0,-100.00,WNW,283,1.0,7.0,49,-99.99,,,-99.99,603.000000,,2013-02-03 19:42:00,
2013-02-03 11:52:00,58.0,39.0,-100.00,WNW,283,1.0,7.0,49,-99.99,,,-99.99,603.000000,,2013-02-03 19:52:00,
2013-02-03 12:01:00,58.0,39.0,-100.00,WNW,283,1.0,7.0,49,-99.99,,,-99.99,603.000000,,2013-02-03 20:01:00,
2013-02-03 12:11:00,58.0,39.0,-100.00,WNW,283,1.0,7.0,49,-99.99,,,-99.99,603.000000,,2013-02-03 20:11:00,
2013-02-03 12:42:00,60.0,40.0,-100.00,SE,127,3.0,8.0,47,0.00,,,-99.99,822.000000,,2013-02-03 20:42:00,
2013-02-03 12:52:00,60.0,40.0,-100.00,SE,127,3.0,8.0,47,0.00,,,-99.99,822.000000,,2013-02-03 20:52:00,
2013-02-03 13:03:00,60.0,40.0,-100.00,SE,127,3.0,8.0,47,0.00,,,-99.99,822.000000,,2013-02-03 21:03:00,
2013-02-03 13:42:00,61.0,39.0,-100.00,West,281,3.0,11.0,44,0.01,,,-99.99,814.000000,,2013-02-03 21:42:00,
2013-02-03 13:52:00,61.0,39.0,-100.00,West,281,3.0,11.0,44,0.01,,,-99.99,814.000000,,2013-02-03 21:52:00,
2013-02-03 14:01:00,61.0,39.0,-100.00,West,281,3.0,11.0,44,0.01,,,-99.99,814.000000,,2013-02-03 22:01:00,
2013-02-03 14:32:00,56.0,37.0,-100.00,WSW,252,3.0,10.0,48,0.00,,,-99.99,482.000000,,2013-02-03 22:32:00,
2013-02-03 14:42:00,56.0,37.0,-100.00,WSW,252,3.0,10.0,48,0.00,,,-99.99,482.000000,,2013-02-03 22:42:00,
2013-02-03 14:52:00,56.0,37.0,-100.00,WSW,252,3.0,10.0,48,0.00,,,-99.99,482.000000,,2013-02-03 22:52:00,
2013-02-03 15:01:00,56.0,37.0,-100.00,WSW,252,3.0,10.0,48,0.00,,,-99.99,482.000000,,2013-02-03 23:01:00,
2013-02-03 15:11:00,56.0,37.0,-100.00,WSW,252,3.0,10.0,48,0.00,,,-99.99,482.000000,,2013-02-03 23:11:00,
2013-02-03 15:32:00,56.0,39.0,-100.00,WNW,289,2.0,8.0,52,0.00,,,-99.99,332.000000,,2013-02-03 23:32:00,
2013-02-03 15:42:00,56.0,39.0,-100.00,WNW,289,2.0,8.0,52,0.00,,,-99.99,332.000000,,2013-02-03 23:42:00,
2013-02-03 15:52:00,56.0,39.0,-100.00,WNW,289,2.0,8.0,52,0.00,,,-99.99,332.000000,,2013-02-03 23:52:00,
2013-02-03 16:01:00,56.0,39.0,-100.00,WNW,289,2.0,8.0,52,0.00,,,-99.99,332.000000,,2013-02-04 00:01:00,
2013-02-03 16:11:00,56.0,39.0,-100.00,WNW,289,2.0,8.0,52,0.00,,,-99.99,332.000000,,2013-02-04 00:11:00,
2013-02-03 16:32:00,52.0,38.0,-100.00,WNW,289,0.0,7.0,58,0.00,,,-99.99,120.000000,,2013-02-04 00:32:00,
2013-02-03 16:42:00,52.0,38.0,-100.00,WNW,289,0.0,7.0,58,0.00,,,-99.99,120.000000,,2013-02-04 00:42:00,
2013-02-03 16:52:00,52.0,38.0,-100.00,WNW,289,0.0,7.0,58,0.00,,,-99.99,120.000000,,2013-02-04 00:52:00,
2013-02-03 17:01:00,52.0,38.0,-100.00,WNW,289,0.0,7.0,58,0.00,,,-99.99,120.000000,,2013-02-04 01:01:00,
2013-02-03 17:11:00,52.0,38.0,-100.00,WNW,289,0.0,7.0,58,0.00,,,-99.99,120.000000,,2013-02-04 01:11:00,
2013-02-03 17:42:00,48.0,37.0,-100.00,NNW,330,0.0,3.0,65,0.00,,,-99.99,62.000000,,2013-02-04 01:42:00,
2013-02-03 17:52:00,48.0,37.0,-100.00,NNW,330,0.0,3.0,65,0.00,,,-99.99,62.000000,,2013-02-04 01:52:00,
2013-02-03 18:01:00,48.0,37.0,-100.00,NNW,330,0.0,3.0,65,0.00,,,-99.99,62.000000,,2013-02-04 02:01:00,
2013-02-03 18:11:00,48.0,37.0,-100.00,NNW,330,0.0,3.0,65,0.00,,,-99.99,62.000000,,2013-02-04 02:11:00,
2013-02-03 18:42:00,44.0,35.0,-100.00,North,350,0.0,3.0,71,0.00,,,-99.99,1.000000,,2013-02-04 02:42:00,
2013-02-03 18:52:00,44.0,35.0,-100.00,North,350,0.0,3.0,71,0.00,,,-99.99,1.000000,,2013-02-04 02:52:00,
2013-02-03 19:02:00,44.0,35.0,-100.00,North,350,0.0,3.0,71,0.00,,,-99.99,1.000000,,2013-02-04 03:02:00,
2013-02-03 19:11:00,44.0,35.0,-100.00,North,350,0.0,3.0,71,0.00,,,-99.99,1.000000,,2013-02-04 03:11:00,
2013-02-03 19:32:00,43.0,35.0,-100.00,SE,129,0.0,5.0,72,0.00,,,-99.99,0.000000,,2013-02-04 03:32:00,
2013-02-03 19:42:00,43.0,35.0,-100.00,SE,129,0.0,5.0,72,0.00,,,-99.99,0.000000,,2013-02-04 03:42:00,
2013-02-03 19:52:00,43.0,35.0,-100.00,SE,129,0.0,5.0,72,0.00,,,-99.99,0.000000,,2013-02-04 03:52:00,
2013-02-03 20:01:00,43.0,35.0,-100.00,SE,129,0.0,5.0,72,0.00,,,-99.99,0.000000,,2013-02-04 04:01:00,
2013-02-03 20:11:00,43.0,35.0,-100.00,SE,129,0.0,5.0,72,0.00,,,-99.99,0.000000,,2013-02-04 04:11:00,
2013-02-03 20:32:00,40.0,33.0,-100.00,ESE,104,0.0,3.0,77,0.00,,,-99.99,0.000000,,2013-02-04 04:32:00,
2013-02-03 20:42:00,40.0,33.0,-100.00,ESE,104,0.0,3.0,77,0.00,,,-99.99,0.000000,,2013-02-04 04:42:00,
2013-02-03 20:52:00,40.0,33.0,-100.00,ESE,104,0.0,3.0,77,0.00,,,-99.99,0.000000,,2013-02-04 04:52:00,
2013-02-03 21:03:00,40.0,33.0,-100.00,ESE,104,0.0,3.0,77,0.00,,,-99.99,0.000000,,2013-02-04 05:03:00,
2013-02-03 21:11:00,40.0,33.0,-100.00,ESE,104,0.0,3.0,77,0.00,,,-99.99,0.000000,,2013-02-04 05:11:00,
2013-02-03 21:33:00,40.0,32.0,-100.00,East,101,0.0,2.0,72,0.00,,,-99.99,0.000000,,2013-02-04 05:33:00,
2013-02-03 21:42:00,40.0,32.0,-100.00,East,101,0.0,2.0,72,0.00,,,-99.99,0.000000,,2013-02-04 05:42:00,
2013-02-03 21:52:00,40.0,32.0,-100.00,East,101,0.0,2.0,72,0.00,,,-99.99,0.000000,,2013-02-04 05:52:00,
2013-02-03 22:01:00,40.0,32.0,-100.00,East,101,0.0,2.0,72,0.00,,,-99.99,0.000000,,2013-02-04 06:01:00,
2013-02-03 22:11:00,40.0,32.0,-100.00,East,101,0.0,2.0,72,0.00,,,-99.99,0.000000,,2013-02-04 06:11:00,
2013-02-03 22:32:00,38.0,32.0,-100.00,ESE,102,0.0,5.0,80,0.00,,,-99.99,0.000000,,2013-02-04 06:32:00,
2013-02-03 22:42:00,38.0,32.0,-100.00,ESE,102,0.0,5.0,80,0.00,,,-99.99,0.000000,,2013-02-04 06:42:00,
2013-02-03 22:52:00,38.0,32.0,-100.00,ESE,102,0.0,5.0,80,0.00,,,-99.99,0.000000,,2013-02-04 06:52:00,
2013-02-03 23:01:00,38.0,32.0,-100.00,ESE,102,0.0,5.0,80,0.00,,,-99.99,0.000000,,2013-02-04 07:01:00,
2013-02-03 23:11:00,38.0,32.0,-100.00,ESE,102,0.0,5.0,80,0.00,,,-99.99,0.000000,,2013-02-04 07:11:00,
2013-02-03 23:32:00,37.0,31.0,-100.00,ESE,113,0.0,0.0,79,0.00,,,-99.99,0.000000,,2013-02-04 07:32:00,
2013-02-03 23:42:00,37.0,31.0,-100.00,ESE,113,0.0,0.0,79,0.00,,,-99.99,0.000000,,2013-02-04 07:42:00,
2013-02-03 23:52:00,37.0,31.0,-100.00,ESE,113,0.0,0.0,79,0.00,,,-99.99,0.000000,,2013-02-04 07:52:00,